NOAA 16 DEB, 41263

Orbit data source: Space-Track

NOAA 16 DEB, 41263 is space debris in SSO originally from a launch on Thu, 21 Sep 2000 UTC launched from the Air Force Western Test Range (AFWTR). Debris objects in space refer to the collection of defunct objects orbiting the Earth. Examples of debris include non-operational satellites, rocket bodies, and fragments generated from explosions, collisions, or faulty payload assembly.

Loading next visibility...
Identifier
41263, 2000-055FP
Orbit
SSO
Country
Flag of USUS
Related business
Manufacturer
Unknown
Mission
Spacecraft
Bus & Motor
Unknown
Mass
Unknown
Launch date (UTC)
2000-09-21 (26 years ago)
Launch vehicle
Unknown
Launch site
Air Force Western Test Range (AFWTR)
Object type
Payload
Rocket body
Debris
Shape & HBR
Unknown shape, 0.1 m
Radar Cross Section
Medium (>0.1 m² and <1 m²)

Expand to show TLE details & history
Last TLE update: 2 days ago

TLE from 2 days ago
0 NOAA 16 DEB
1 41263U 00055FP  26234.52556169  .00003429  00000-0  16745-2 0  9995
2 41263  98.8323 255.0664 0063899 228.1589 131.4121 14.17607287545032
Epoch: 2026-08-22T12:36Z
TLE epoch observation values (Epoch: 2026-08-22T12:36:48.530Z)
Latitude
0.00007°
Longitude
95.02947°
Altitude
867.015 km
Speed
7.403 km/s
True Right ascension
17h 00m 15s
True Declination
0° 00' 00"
Sunlit
Object was in daylight at epoch
Visualization orbit readout
Latitude
Unknown
Longitude
Unknown
Altitude
Unknown
Speed
Unknown
Apparent Right ascension
Unknown
Apparent Declination
Unknown
Sunlit
N/A
Visualization observer readout
Local Sidereal Time
05:19:20
Azimuth
Unknown
Elevation
Unknown
Doppler factor
Unknown
Orbital elements
Apogee altitude
876.687 km
Perigee altitude
784.56 km
Semi-major axis
7,208.761 km
Eccentricity
0.00639
Inclination
98.8323°
RAAN
255.0664°
Arg. of periapsis
228.1589°
True anomaly
131.95836°
Mean anomaly
131.4121°
Eccentric anomaly
131.68552°
Mean motion
3.54611 °/min
Orbital period
101.52 mins
BSTAR
0.0016745
Loading maneuver chart data...
Computing Atmospheric mass density...
Loading historical data...
Loading historical data...
Loading historical data...
Loading historical data...
Loading historical data...
Loading historical data...
Loading historical data...

Documentation

Showing up to 5 results
|